Regional Weather Roundup
Issued by NWS

Home | Current Version | Previous Version | Graphics & Text | Print | Product List | Glossary On
Versions: 1 2 3 4 5 6 7 8 9 10 11 12 13 14 15 16 17 18 19 20 21 22 23 24 25 26 27 28 29 30 31 32 33 34 35 36 37 38 39 40 41 42 43 44 45 46 47 48 49 50
000
ASUS43 KTOP 110608
RWRKS

WEATHER ROUNDUP FOR KANSAS
NATIONAL WEATHER SERVICE GOODLAND KS
100 AM CDT FRI JUL 11 2014

NOTE:  "FAIR" INDICATES FEW OR NO CLOUDS BELOW 12,000 FEET WITH NO
SIGNIFICANT WEATHER AND/OR OBSTRUCTIONS TO VISIBILITY.

KSZ001>006-013>018-027>032-041>047-110700-
NORTHWEST KANSAS

CITY           SKY/WX    TMP DP  RH WIND       PRES   REMARKS
GOODLAND       CLEAR     73  62  68 S18       29.95F
6HR MIN TEMP:  73; 6HR MAX TEMP:  90;

HAYS           CLOUDY   N/A N/A N/A S17       29.96S
HILL CITY      CLOUDY    73  68  84 SE10      29.95F
6HR MIN TEMP:  73; 6HR MAX TEMP:  87;

RUSSELL        CLEAR     72  67  84 S18G28    29.94S
6HR MIN TEMP:  71; 6HR MAX TEMP:  83;

$$

KSZ061>065-074>080-084>089-110700-
SOUTHWEST KANSAS

CITY           SKY/WX    TMP DP  RH WIND       PRES   REMARKS
DODGE CITY     CLEAR     72  69  90 SE13      29.99S
6HR MIN TEMP:  72; 6HR MAX TEMP:  88;

ELKHART          N/A     78  50  37 S14         N/A
GARDEN CITY    CLEAR     75  62  64 SE14      29.97S
6HR MIN TEMP:  75; 6HR MAX TEMP:  93;

GREAT BEND     CLOUDY    72  66  83 S18       29.96S
LIBERAL        CLEAR     77  50  38 S10       30.02R
PRATT          CLOUDY    72  68  88 S16G23    30.00S
$$

KSZ066>073-081>083-090>101-110700-
SOUTHEAST KANSAS

CITY           SKY/WX    TMP DP  RH WIND       PRES   REMARKS
CHANUTE        MOCLDY    70  66  87 SE7       30.06S
6HR MIN TEMP:  70; 6HR MAX TEMP:  81;

COFFEYVILLE    PTCLDY    72  67  84 SE7       30.04F
6HR MIN TEMP:  72; 6HR MAX TEMP:  80;

HUTCHINSON     CLEAR     72  67  84 SE12      29.99S
6HR MIN TEMP:  72; 6HR MAX TEMP:  83;

MEDICINE LODGE   N/A     72  70  93 SE10      29.99S
NEWTON         CLEAR     70  63  78 SE13      30.04S
PARSONS        MOCLDY    71  66  84 SE5       30.07S
6HR MIN TEMP:  71; 6HR MAX TEMP:  81;

WICHITA INTL   PTCLDY    72  66  81 SE16      30.00S
6HR MIN TEMP:  72; 6HR MAX TEMP:  80;

WICHITA JABRA  CLEAR     70  67  90 SE10      30.00F
6HR MIN TEMP:  70; 6HR MAX TEMP:  80;

WICHITA MCCONL PTCLDY    71  71 100 SE13      30.01S
WINFIELD       CLEAR     70  68  93 SE10      30.03S
6HR MIN TEMP:  70; 6HR MAX TEMP:  79;

$$

KSZ007>012-019>026-033>040-048>060-102>105-110700-
NORTHEAST KANSAS

CITY           SKY/WX    TMP DP  RH WIND       PRES   REMARKS
CONCORDIA      CLEAR     72  66  81 SE13      29.99S
6HR MIN TEMP:  72; 6HR MAX TEMP:  84;

EMPORIA        PTCLDY    70  67  90 SE12      30.05R
6HR MIN TEMP:  70; 6HR MAX TEMP:  81;

LAWRENCE       CLEAR     71  63  75 SE7       30.06S
6HR MIN TEMP:  68; 6HR MAX TEMP:  84;

MANHATTAN      MOCLDY    72  65  78 E5        30.02S
6HR MIN TEMP:  71; 6HR MAX TEMP:  85;

MARYSVILLE     CLEAR     72  66  83 SE9       30.01F
OLATHE IND     CLEAR     70  62  76 SE6       30.08S
6HR MIN TEMP:  69; 6HR MAX TEMP:  81;

OLATHE EXE     CLEAR     69  63  81 SE8       30.07S
6HR MIN TEMP:  68; 6HR MAX TEMP:  79;

SALINA         PTCLDY    75  67  76 SE14      29.99S
6HR MIN TEMP:  75; 6HR MAX TEMP:  87;

TOPEKA BILLARD CLEAR     73  65  75 SE9       30.05S
6HR MIN TEMP:  72; 6HR MAX TEMP:  84;

TOPEKA FORBES  CLEAR     71  64  78 SE9       30.04F
6HR MIN TEMP:  71; 6HR MAX TEMP:  84;

$$


USA.gov is the U.S. government's official web portal to all federal, state and local government web resources and services.